Tracking 29487 objects as of 12-Sep-2024
HD Live streaming from Space Station
objects crossing your sky now

FENGYUN 1C DEB

Track FENGYUN 1C DEB now!
10-day predictions


NORAD ID: 31094
Int'l Code: 1999-025BGQ
Perigee: 827.2 km
Apogee: 983.0 km
Inclination: 98.9 °
Period: 102.9 minutes
Semi major axis: 7276 km
RCS: 0.0135 m2 (small)
Launch date: May 10, 1999
Source: People's Republic of China (PRC)
Launch site: Taiyaun Space Center, China (TSC)

Note: This is SATELLITE DEBRIS
Your satellite tracking list
Your tracking list is empty




NASA's NSSDC Master Catalog

Two Line Element Set (TLE):
1 31094U 99025BGQ 24255.42798270  .00005828  00000-0  38809-2 0  9992
2 31094  98.9069 129.8391 0107064 239.0323 120.0287 13.98785549892179
Source of the keplerian elements: AFSPC